Regional Weather Roundup
Issued by NWS

Home | Current Version | Previous Version | Text Only | Print | Product List | Glossary On
Versions: 1 2 3 4 5 6 7 8 9 10 11 12 13 14 15 16 17 18 19 20 21 22 23 24 25 26 27 28 29 30 31 32 33 34 35 36 37 38 39 40 41 42 43 44 45 46 47 48 49 50
000
ASUS46 KPQR 281810
RWROR

OREGON REGIONAL WEATHER ROUNDUP
NATIONAL WEATHER SERVICE PORTLAND OR
1100 AM PDT SUN MAY 28 2017

NOTE: "FAIR" INDICATES FEW OR NO CLOUDS BELOW 12,000 FEET WITH
NO SIGNIFICANT WEATHER AND/OR OBSTRUCTIONS TO VISIBILITY.

ORZ001>013-281900-
NORTHWEST OREGON


CITY           SKY/WX    TMP DP  RH WIND       PRES   REMARKS
ASTORIA        CLOUDY    55  49  80 W6        30.14S
6HR MIN TEMP:  51; 6HR MAX TEMP:  55;

NEWPORT        CLOUDY    55  50  82 W7        30.19R
PORTLAND       SUNNY     66  52  60 NW6       30.09F
6HR MIN TEMP:  55; 6HR MAX TEMP:  67;

VANCOUVER WA   SUNNY     67  57  70 W5        30.08F
6HR MIN TEMP:  56; 6HR MAX TEMP:  67;

SCAPPOOSE      SUNNY     67  56  67 NE5       30.08F
6HR MIN TEMP:  52; 6HR MAX TEMP:  67;

HILLSBORO      SUNNY     69  56  62 CALM      30.09F
6HR MIN TEMP:  52; 6HR MAX TEMP:  69;

AURORA         MOSUNNY   65  53  65 VRB3      30.11F
6HR MIN TEMP:  53; 6HR MAX TEMP:  65;

MCMINNVILLE    SUNNY     65  53  65 S6        30.11F
6HR MIN TEMP:  51; 6HR MAX TEMP:  66;

SALEM          SUNNY     63  53  70 SW7       30.11F
6HR MIN TEMP:  50; 6HR MAX TEMP:  63;

CORVALLIS      MOSUNNY   63  52  67 CALM      30.13F
EUGENE         CLOUDY    56  52  86 S6        30.14S
6HR MIN TEMP:  52; 6HR MAX TEMP:  57;

$$

ORZ021-028-281900-
SOUTHWEST OREGON


CITY           SKY/WX    TMP DP  RH WIND       PRES   REMARKS
NORTH BEND     CLOUDY    55  52  88 W7        30.17F
6HR MIN TEMP:  52; 6HR MAX TEMP:  57;

BROOKINGS      CLOUDY    52  49  89 W3        30.16S
ROSEBURG       CLOUDY    59  52  77 NW3       30.13S
6HR MIN TEMP:  54; 6HR MAX TEMP:  59;

SEXTON SUMMIT  SUNNY     68  52  56 E5        30.16S
6HR MIN TEMP:  54; 6HR MAX TEMP:  68;

MEDFORD        SUNNY     76  52  43 W5        30.06F
6HR MIN TEMP:  58; 6HR MAX TEMP:  76;

$$

ORZ014>016-041-281900-
COLUMBIA GORGE


CITY           SKY/WX    TMP DP  RH WIND       PRES   REMARKS
TROUTDALE      SUNNY     69  54  58 NW7       30.08F
6HR MIN TEMP:  54; 6HR MAX TEMP:  69;

HOOD RIVER     SUNNY     75  52  43 CALM      30.09F
THE DALLES     SUNNY     78  49  35 VRB3      30.08F
6HR MIN TEMP:  51; 6HR MAX TEMP:  78;

$$

ORZ029>031-041-044-049-050-061>064-502-503-505>511-281900-
EASTERN OREGON


CITY           SKY/WX    TMP DP  RH WIND       PRES   REMARKS
REDMOND        SUNNY     76  31  19 CALM      30.15F
6HR MIN TEMP:  43; 6HR MAX TEMP:  77;

BEND           SUNNY     73  37  27 CALM      30.12F
PRINEVILLE     SUNNY     77  37  24 SE8       30.17F
KLAMATH FALLS  SUNNY     70  43  37 CALM      30.18F
6HR MIN TEMP:  41; 6HR MAX TEMP:  72;

HERMISTON      SUNNY     79  47  32 NW5       30.09F
6HR MIN TEMP:  47; 6HR MAX TEMP:  79;

PENDLETON      SUNNY     77  51  40 W5        30.11F
6HR MIN TEMP:  53; 6HR MAX TEMP:  78;

JOHN DAY       SUNNY     76  40  27 CALM      30.20S
MEACHAM        SUNNY     75  31  19 VRB3      30.21S
6HR MIN TEMP:  38; 6HR MAX TEMP:  75;

LA GRANDE      SUNNY     70  41  35 CALM      30.19S
6HR MIN TEMP:  46; 6HR MAX TEMP:  70;

BAKER CITY     SUNNY     71  48  43 VRB5      30.21F
6HR MIN TEMP:  38; 6HR MAX TEMP:  71;

BURNS          SUNNY     73  36  25 VRB7      30.23F
6HR MIN TEMP:  39; 6HR MAX TEMP:  73;

ROME             N/A     78  32  18 NE9       30.21F
6HR MIN TEMP:  39; 6HR MAX TEMP:  78;

ONTARIO        SUNNY     73  45  36 CALM      30.21S
6HR MIN TEMP:  46; 6HR MAX TEMP:  74;

$$



USA.gov is the U.S. government's official web portal to all federal, state and local government web resources and services.